Greenville/Spartanburg, SC

1:58 AM EST on February 25, 2018 (GMT -0500)
Greenville-Spartanburg International

Weather History for KGSP - June, 2013

Change the Weather History Date:

Wednesday, June 12, 2013

  Actual Average Record
Temperature  
Mean Temperature 80 °F 76 °F  
Max Temperature 93 °F 87 °F 99 °F (1914)
Min Temperature 66 °F 65 °F 47 °F (1972)
Degree Days  
Heating Degree Days 0 0  
Month to date heating degree days 0 0  
Since 1 June heating degree days 0 0  
Since 1 July heating degree days 2966 3044  
Cooling Degree Days 15 11  
Month to date cooling degree days 127 118  
Year to date cooling degree days 289 319  
Since 1 June cooling degree days 127 118  
Growing Degree Days 30 (Base 50)    
Moisture  
Dew Point 69 °F    
Average Humidity 67    
Maximum Humidity 93    
Minimum Humidity 41    
Precipitation  
Precipitation 0.00 in 0.13 in 1.74 in (1965)
Month to date precipitation 6.44 1.52  
Year to date precipitation 29.60 20.95  
Snow  
Snow 0.00 in 0.00 in 0.00 in ()
Month to date snowfall 0.0 0.0  
Since 1 June snowfall 0.0 0.0  
Since 1 July snowfall 2.0 4.7  
Snow Depth 0.00 in    
Sea Level Pressure  
Sea Level Pressure 29.95 in    
Wind  
Wind Speed 5 mph (WSW)    
Max Wind Speed 13 mph    
Max Gust Speed 22 mph    
Visibility 10 miles    
Events      
T = Trace of Precipitation, MM = Missing Value Source: NWS Daily Summary

Daily Weather History Graph

Daily Weather History Graph

Search for Another Location

Airport or City:

Trip Planner

Search our weather history database for the weather conditions in past years. The results will help you decide how hot, cold, wet, or windy it might be!

Date:

Astronomy

Jun. 12, 2013 Rise Set
Actual Time 6:14 AM EDT 8:43 PM EDT
Civil Twilight 5:45 AM EDT 9:12 PM EDT
Nautical Twilight 5:08 AM EDT 9:49 PM EDT
Astronomical Twilight 4:28 AM EDT 10:29 PM EDT
Moon 9:46 AM EDT (6/12) 11:26 PM EDT (6/12)
Length of Visible Light 15h 27m
Length of Day
14h 28m
Waxing Crescent, 14% of the Moon is Illuminated
Jun 12
Waxing Crescent
Jun 16
First Quarter
Jun 23
Full
Jun 30
Last Quarter
Jul 8
New

Hourly Weather History & Observations

Time (EDT) Temp. Heat Index Dew Point Humidity Pressure Visibility Wind Dir Wind Speed Gust Speed Precip Events Conditions
12:53 AM 73.9 °F - 64.9 °F 73% 29.97 in 10.0 mi NNE 3.5 mph - N/A   Clear
1:53 AM 71.1 °F - 66.9 °F 87% 29.96 in 10.0 mi Calm Calm - N/A   Clear
2:53 AM 69.1 °F - 66.9 °F 93% 29.96 in 10.0 mi Calm Calm - N/A   Clear
3:53 AM 68.0 °F - 64.9 °F 90% 29.94 in 10.0 mi Calm Calm - N/A   Clear
4:53 AM 68.0 °F - 64.9 °F 90% 29.95 in 10.0 mi North 4.6 mph - N/A   Clear
5:53 AM 66.9 °F - 64.0 °F 90% 29.96 in 10.0 mi Calm Calm - N/A   Clear
6:53 AM 66.0 °F - 64.0 °F 93% - 10.0 mi Calm Calm - N/A   Clear
7:53 AM 72.0 °F - 66.0 °F 81% 29.98 in 10.0 mi Calm Calm - N/A   Clear
8:53 AM 73.0 °F - 66.0 °F 79% 30.00 in 10.0 mi Calm Calm - N/A   Clear
9:53 AM 75.9 °F - 68.0 °F 76% 30.00 in 10.0 mi Calm Calm - N/A   Clear
10:53 AM 84.9 °F 89.4 °F 70.0 °F 61% 29.99 in 10.0 mi WNW 3.5 mph - N/A   Clear
11:53 AM 84.9 °F 88.8 °F 69.1 °F 59% 30.00 in 10.0 mi WNW 5.8 mph - N/A   Clear
12:53 PM 86.0 °F 90.1 °F 69.1 °F 57% 29.99 in 10.0 mi WNW 4.6 mph - N/A   Clear
1:53 PM 88.0 °F 92.1 °F 69.1 °F 53% 29.97 in 10.0 mi SW 9.2 mph - N/A   Clear
2:53 PM 91.0 °F 92.6 °F 64.0 °F 41% 29.96 in 10.0 mi SW 10.4 mph - N/A   Clear
3:53 PM 91.9 °F 97.4 °F 70.0 °F 48% 29.95 in 10.0 mi West 8.1 mph - N/A   Clear
4:53 PM 91.0 °F 100.4 °F 73.9 °F 57% 29.93 in 10.0 mi West 9.2 mph - N/A   Clear
5:53 PM 90.0 °F 99.0 °F 73.9 °F 59% 29.92 in 10.0 mi SW 11.5 mph - N/A   Clear
6:53 PM 89.1 °F 98.0 °F 73.9 °F 61% 29.92 in 10.0 mi SW 10.4 mph - N/A   Clear
7:53 PM 87.1 °F 93.6 °F 72.0 °F 61% 29.91 in 10.0 mi SW 8.1 mph - N/A   Clear
8:53 PM 82.9 °F 88.8 °F 73.0 °F 72% 29.92 in 9.0 mi SW 6.9 mph - N/A   Clear
9:53 PM 82.0 °F 87.4 °F 73.0 °F 74% 29.91 in 10.0 mi South 5.8 mph - N/A   Clear
10:53 PM 80.1 °F 84.2 °F 73.0 °F 79% 29.91 in 10.0 mi SW 6.9 mph - N/A   Clear
11:53 PM 80.1 °F 84.2 °F 73.0 °F 79% 29.90 in 10.0 mi WSW 6.9 mph - N/A   Clear